Tracking 25656 objects as of 21-May-2022
HD Live streaming from Space Station
objects crossing your sky now

SPACEBEE-13

Track SPACEBEE-13 now!
10-day predictions


NORAD ID: 46310
Int'l Code: 2020-061AQ
Perigee: 514.7 km
Apogee: 516.4 km
Inclination: 97.5 °
Period: 94.8 minutes
Semi major axis: 6886 km
RCS: Unknown
Launch date: September 3, 2020
Source: United States (US)
Launch site: FRENCH GUIANA (FRGUI)
aabbcc
Your satellite tracking list
Your tracking list is empty




NASA's NSSDC Master Catalog

Two Line Element Set (TLE):
1 46310U 20061AQ  22141.44357183  .00039289  00000-0  18637-2 0  9996
2 46310  97.4516 214.2776 0001223 167.5990 192.5275 15.19159894 94491
Source of the keplerian elements: AFSPC